MinXSS-2 (43758 NORAD) Tracking and Keplerian Element Data

This shows tracking and keplerian element data for the satellite.

Feedback or suggestion? Click here.




ElementValue
Catalog43758
NameMinXSS-2
Epoch Orbit2032
Epoch Day108.72798852
Epoch Year2019
RAAN181.4899
Inclination97.7486
Eccentricity0.0016177
Argument of Perigee166.1071
Mean Anonmoly194.0598
Mean Motion14.95354631
Decay Rate2.7E-06
L11 43758U 18099A 19108.72798852 .00000270 00000-0 29674-4 0 9992
L22 43758 97.7486 181.4899 0016177 166.1071 194.0598 14.95354631 20328

Live tracking and technical data element details for MinXSS-2 (NORAD 43758). MinXSS-2 can be tracked NOW for your location showing map with azimuth and elevation plus other details from your city location.

Track the satellite on the map from your city or location and see movement details for azimuth, elevation, latitude, longitude, range, height, and movement on the map or in text.







IsCatalogInMostPopularTable: catalog: 43758, numindb: 61
Update: records affected: 1



GetName: 43758 MinXSS-2

Hit Count: updated at: Wed, 24 Apr 2019 18:21:24 GMT